STARLINK-3760, 52298

Orbit data source: Space-Track

STARLINK-3760, 52298 is a payload satellite owned by SpaceX/Seattle (US) in LEO that was launched on Thu, 21 Apr 2022 UTC via an FALCON 9 launch vehicle from the Air Force Eastern Test Range (AFETR). Payload-class satellites include a variety of spacecraft equipped with specific instruments for various scientific and technological missions. These include communications satellites like Starlink; space stations such as the ISS; scientific satellites like the Hubble; Earth observation satellites from companies like Planet Labs, Umbra, and HawkEye 360; GPS; miniature CubeSats for education and research; and military/defense satellites.

Loading next visibility...
Identifier
52298, 2022-041AP
Orbit
LEO
Country
Flag of USUS
Related business
Manufacturer
SpaceX/Seattle
Mission
Operational Commercial Communications
Bus & Motor
STARLINK, Unknown motor
Mass
297 kg wet, ~275 kg dry
Launch date (UTC)
2022-04-21 (4 years ago)
Launch vehicle
FALCON 9
Launch site
Air Force Eastern Test Range (AFETR)
Object type
Payload
Rocket body
Debris
Shape & HBR
Box + 1 Pan, 10.1 m
Radar Cross Section
11.087 m², Large (>1 m²)

Expand to show TLE details & history
Last TLE update: 1 day ago

TLE from 1 day ago
0 STARLINK-3760
1 52298U 22041AP  26235.80074363 -.00000240  00000-0  40315-5 0  9999
2 52298  53.1608  60.8538 0000716  70.6760 289.4320 15.34371804239841
Epoch: 2026-08-23T19:13Z
TLE epoch observation values (Epoch: 2026-08-23T19:13:04.249Z)
Latitude
-0.00003°
Longitude
160.49448°
Altitude
463.526 km
Speed
7.636 km/s
True Right ascension
04h 03m 24s
True Declination
0° 00' 00"
Sunlit
Object was in daylight at epoch
Visualization orbit readout
Latitude
Unknown
Longitude
Unknown
Altitude
Unknown
Speed
Unknown
Apparent Right ascension
Unknown
Apparent Declination
Unknown
Sunlit
N/A
Visualization observer readout
Local Sidereal Time
18:14:11
Azimuth
Unknown
Elevation
Unknown
Doppler factor
Unknown
Orbital elements
Apogee altitude
463.534 km
Perigee altitude
462.554 km
Semi-major axis
6,841.181 km
Eccentricity
0.00007
Inclination
53.1608°
RAAN
60.8538°
Arg. of periapsis
70.676°
True anomaly
289.42426°
Mean anomaly
289.432°
Eccentric anomaly
289.42813°
Mean motion
3.83572 °/min
Orbital period
93.85 mins
BSTAR
0.0000040315
Loading maneuver chart data...
Computing Atmospheric mass density...
Loading historical data...
Loading historical data...
Loading historical data...
Loading historical data...
Loading historical data...
Loading historical data...
Loading historical data...

Documentation

Showing up to 5 results
|